Weather History for KALB - September, 2013

Change the Weather History Date:

Wednesday, September 25, 2013

  Actual Average Record
Temperature  
Mean Temperature 56 °F 58 °F  
Max Temperature 70 °F 68 °F 89 °F (1970)
Min Temperature 41 °F 48 °F 29 °F (1963)
Degree Days  
Heating Degree Days 9 8  
Month to date heating degree days 131 99  
Since 1 July heating degree days 137 122  
Cooling Degree Days 0 1  
Month to date cooling degree days 65 49  
Year to date cooling degree days 763 592  
Growing Degree Days 6 (Base 50)    
Moisture  
Dew Point 46 °F    
Average Humidity 67    
Maximum Humidity 92    
Minimum Humidity 42    
Precipitation  
Precipitation 0.00 in 0.12 in 2.02 in (1940)
Month to date precipitation 4.81 2.71  
Year to date precipitation 36.32 28.86  
Sea Level Pressure  
Sea Level Pressure 29.96 in    
Wind  
Wind Speed 2 mph (NNE)    
Max Wind Speed 10 mph    
Max Gust Speed 14 mph    
Visibility 10 miles    
Events Fog    
T = Trace of Precipitation, MM = Missing Value Source: NWS Daily Summary

Daily Weather History Graph

Daily Weather History Graph

Search for Another Location

Airport or City:

Trip Planner

Search our weather history database for the weather conditions in past years. The results will help you decide how hot, cold, wet, or windy it might be!

Date:

Astronomy

Sep. 25, 2013 Rise Set
Actual Time 6:46 AM EDT 6:46 PM EDT
Civil Twilight 6:17 AM EDT 7:14 PM EDT
Nautical Twilight 5:44 AM EDT 7:47 PM EDT
Astronomical Twilight 5:11 AM EDT 8:21 PM EDT
Moon 10:43 PM EDT (9/25) 12:56 PM EDT (9/25)
Length of Visible Light 12h 57m
Length of Day
12h 00m
Waning Gibbous, 64% of the Moon is Illuminated
Sep 25
Waning Gibbous
Sep 26
Last Quarter
Oct 4
New
Oct 11
First Quarter
Oct 18
Full

Hourly Weather History & Observations

Time (EDT) Temp. Windchill Dew Point Humidity Pressure Visibility Wind Dir Wind Speed Gust Speed Precip Events Conditions
12:51 AM 50.0 °F - 42.1 °F 74% 29.98 in 10.0 mi NW 3.5 mph - N/A   Clear
1:51 AM 46.9 °F - 43.0 °F 86% 29.98 in 10.0 mi Calm Calm - N/A   Clear
2:51 AM 45.0 °F 43.5 °F 42.1 °F 90% 29.97 in 10.0 mi ENE 3.5 mph - N/A   Clear
3:51 AM 44.1 °F - 39.9 °F 85% 29.97 in 10.0 mi Calm Calm - N/A   Clear
4:51 AM 43.0 °F - 39.9 °F 89% 29.96 in 10.0 mi Calm Calm - N/A   Clear
5:51 AM 43.0 °F - 39.9 °F 89% 29.97 in 10.0 mi Calm Calm - N/A   Clear
6:51 AM 42.1 °F - 39.0 °F 89% 29.97 in 10.0 mi Calm Calm - N/A Fog Patches of Fog
7:51 AM 46.0 °F - 43.0 °F 89% 29.98 in 10.0 mi Calm Calm - N/A Fog Patches of Fog
8:51 AM 52.0 °F - 46.0 °F 80% 29.99 in 10.0 mi Calm Calm - N/A   Partly Cloudy
9:51 AM 55.9 °F - 46.0 °F 69% 29.99 in 10.0 mi Calm Calm - N/A   Partly Cloudy
10:51 AM 60.1 °F - 46.0 °F 60% 29.97 in 10.0 mi North 4.6 mph - N/A   Partly Cloudy
11:51 AM 63.0 °F - 46.0 °F 54% 29.97 in 10.0 mi Variable 3.5 mph - N/A   Partly Cloudy
12:51 PM 64.9 °F - 46.0 °F 50% 29.95 in 10.0 mi Variable 3.5 mph - N/A   Partly Cloudy
1:51 PM 68.0 °F - 45.0 °F 43% 29.94 in 10.0 mi Calm Calm - N/A   Partly Cloudy
2:51 PM 68.0 °F - 46.9 °F 47% 29.92 in 10.0 mi East 3.5 mph - N/A   Partly Cloudy
3:51 PM 69.1 °F - 48.0 °F 47% 29.91 in 10.0 mi NNE 5.8 mph - N/A   Partly Cloudy
4:51 PM 69.1 °F - 48.0 °F 47% 29.91 in 10.0 mi Calm Calm - N/A   Scattered Clouds
5:51 PM 66.9 °F - 48.9 °F 52% 29.91 in 10.0 mi ENE 5.8 mph - N/A   Partly Cloudy
6:51 PM 62.1 °F - 50.0 °F 65% 29.92 in 10.0 mi Calm Calm - N/A   Partly Cloudy
7:51 PM 57.9 °F - 50.0 °F 75% 29.94 in 10.0 mi Calm Calm - N/A   Partly Cloudy
8:51 PM 55.9 °F - 51.1 °F 84% 29.96 in 10.0 mi Calm Calm - N/A   Partly Cloudy
9:51 PM 55.9 °F - 50.0 °F 80% 29.98 in 10.0 mi North 3.5 mph - N/A   Scattered Clouds
10:51 PM 55.9 °F - 50.0 °F 80% 29.99 in 10.0 mi North 4.6 mph - N/A   Mostly Cloudy
11:51 PM 57.0 °F - 50.0 °F 77% 30.00 in 10.0 mi North 6.9 mph - N/A   Overcast